Hourly Weather Murree

Today, 28 September, Tuesday

Time Temperature Precipitation Wind Pressure Humidity
00:00 +21°C° 0 mm 2 mps 647 mmHg 72%
01:00 +20°C° 0 mm 2 mps 647 mmHg 72%
02:00 +20°C° 0 mm 2 mps 647 mmHg 72%
03:00 +20°C° 0 mm 2 mps 647 mmHg 72%
04:00 +20°C° 0 mm 2 mps 647 mmHg 72%
05:00 +20°C° 0 mm 2 mps 647 mmHg 72%
06:00 +21°C° 0 mm 2 mps 648 mmHg 69%
07:00 +23°C° 0 mm 1 mps 648 mmHg 65%
08:00 +25°C° 0 mm 1 mps 649 mmHg 61%
09:00 +26°C° 0 mm 1 mps 649 mmHg 57%
10:00 +27°C° 0 mm 1 mps 649 mmHg 53%
11:00 +28°C° 0 mm 2 mps 650 mmHg 49%
12:00 +29°C° 0 mm 2 mps 649 mmHg 48%
13:00 +29°C° 0 mm 2 mps 649 mmHg 47%
14:00 +29°C° 0 mm 2 mps 649 mmHg 46%
15:00 +29°C° 0 mm 2 mps 648 mmHg 50%
16:00 +28°C° 0 mm 2 mps 648 mmHg 55%
17:00 +27°C° 0 mm 1 mps 648 mmHg 59%
18:00 +26°C° 0 mm 1 mps 648 mmHg 62%
19:00 +24°C° 0 mm 1 mps 648 mmHg 65%
20:00 +23°C° 0 mm 1 mps 648 mmHg 68%
21:00 +23°C° 0 mm 1 mps 648 mmHg 69%
22:00 +21°C° 0 mm 2 mps 648 mmHg 70%
23:00 +21°C° 0 mm 2 mps 648 mmHg 71%

Tomorrow, 29 September, Wednesday

Time Temperature Precipitation Wind Pressure Humidity
00:00 +21°C° 0 mm 2 mps 647 mmHg 71%
01:00 +21°C° 0 mm 2 mps 647 mmHg 71%
02:00 +20°C° 0 mm 2 mps 647 mmHg 72%
03:00 +20°C° 0 mm 2 mps 647 mmHg 72%
04:00 +20°C° 0 mm 2 mps 647 mmHg 73%
05:00 +20°C° 0 mm 2 mps 647 mmHg 73%
06:00 +21°C° 0 mm 2 mps 648 mmHg 69%
07:00 +23°C° 0 mm 1 mps 649 mmHg 65%
08:00 +25°C° 0 mm 1 mps 649 mmHg 61%
09:00 +26°C° 0 mm 1 mps 650 mmHg 57%
10:00 +27°C° 0 mm 2 mps 650 mmHg 52%
11:00 +29°C° 0 mm 2 mps 650 mmHg 48%
12:00 +29°C° 0 mm 2 mps 650 mmHg 47%
13:00 +29°C° 0 mm 2 mps 649 mmHg 46%
14:00 +30°C° 0 mm 2 mps 649 mmHg 45%
15:00 +29°C° 0 mm 2 mps 648 mmHg 49%
16:00 +28°C° 0 mm 2 mps 648 mmHg 54%
17:00 +28°C° 0 mm 1 mps 648 mmHg 58%
18:00 +26°C° 0 mm 1 mps 648 mmHg 62%
19:00 +25°C° 0 mm 1 mps 647 mmHg 65%
20:00 +23°C° 0 mm 1 mps 647 mmHg 69%
21:00 +23°C° 0 mm 2 mps 647 mmHg 70%
22:00 +21°C° 0 mm 2 mps 647 mmHg 70%
23:00 +21°C° 0 mm 2 mps 647 mmHg 71%

Day after tomorrow, 30 September, Thursday

Time Temperature Precipitation Wind Pressure Humidity
00:00 +21°C° 0 mm 2 mps 647 mmHg 71%
01:00 +21°C° 0 mm 2 mps 647 mmHg 72%
02:00 +20°C° 0 mm 2 mps 647 mmHg 72%
03:00 +20°C° 0 mm 2 mps 647 mmHg 72%
04:00 +20°C° 0 mm 2 mps 647 mmHg 72%
05:00 +20°C° 0 mm 2 mps 647 mmHg 72%
06:00 +21°C° 0 mm 2 mps 648 mmHg 68%
07:00 +24°C° 0 mm 1 mps 649 mmHg 63%
08:00 +25°C° 0 mm 1 mps 649 mmHg 59%
09:00 +26°C° 0 mm 1 mps 650 mmHg 55%
10:00 +28°C° 0 mm 1 mps 650 mmHg 51%
11:00 +29°C° 0 mm 2 mps 650 mmHg 47%
12:00 +29°C° 0 mm 2 mps 650 mmHg 46%
13:00 +30°C° 0 mm 2 mps 649 mmHg 45%
14:00 +30°C° 0 mm 2 mps 649 mmHg 43%
15:00 +29°C° 0 mm 2 mps 648 mmHg 48%
16:00 +29°C° 0 mm 2 mps 648 mmHg 52%
17:00 +28°C° 0 mm 1 mps 647 mmHg 57%
18:00 +26°C° 0 mm 1 mps 647 mmHg 61%
19:00 +25°C° 0 mm 1 mps 647 mmHg 65%
20:00 +23°C° 0 mm 1 mps 647 mmHg 68%
21:00 +23°C° 0 mm 2 mps 647 mmHg 69%
22:00 +23°C° 0 mm 2 mps 647 mmHg 69%
23:00 +21°C° 0 mm 2 mps 647 mmHg 69%

1 October, Friday

Time Temperature Precipitation Wind Pressure Humidity
00:00 +21°C° 0 mm 2 mps 647 mmHg 70%
01:00 +21°C° 0 mm 2 mps 647 mmHg 70%
02:00 +21°C° 0 mm 2 mps 647 mmHg 70%
03:00 +21°C° 0.1 mm 2 mps 647 mmHg 72%
04:00 +20°C° 0.1 mm 2 mps 647 mmHg 73%
05:00 +20°C° 0.1 mm 2 mps 647 mmHg 75%
06:00 +21°C° 0.2 mm 2 mps 648 mmHg 71%
07:00 +23°C° 0.2 mm 1 mps 648 mmHg 68%
08:00 +25°C° 0.2 mm 1 mps 649 mmHg 64%
09:00 +26°C° 0.5 mm 1 mps 649 mmHg 60%
10:00 +27°C° 0.5 mm 1 mps 649 mmHg 56%
11:00 +28°C° 0.5 mm 1 mps 650 mmHg 51%
12:00 +28°C° 0.3 mm 1 mps 649 mmHg 52%
13:00 +28°C° 0.3 mm 1 mps 648 mmHg 53%
14:00 +28°C° 0.3 mm 2 mps 648 mmHg 54%
15:00 +28°C° 0.2 mm 1 mps 648 mmHg 57%
16:00 +27°C° 0.2 mm 1 mps 647 mmHg 60%
17:00 +27°C° 0.2 mm 1 mps 647 mmHg 63%
18:00 +26°C° 0.1 mm 1 mps 647 mmHg 66%
19:00 +24°C° 0.1 mm 1 mps 647 mmHg 69%
20:00 +23°C° 0.1 mm 2 mps 647 mmHg 73%
21:00 +23°C° 0.2 mm 2 mps 647 mmHg 72%
22:00 +21°C° 0.2 mm 2 mps 647 mmHg 72%
23:00 +21°C° 0.2 mm 2 mps 647 mmHg 72%

2 October, Saturday

Time Temperature Precipitation Wind Pressure Humidity
00:00 +21°C° 0.2 mm 3 mps 647 mmHg 73%
01:00 +21°C° 0.2 mm 3 mps 646 mmHg 74%
02:00 +20°C° 0.2 mm 3 mps 646 mmHg 75%
03:00 +20°C° 1.5 mm 2 mps 646 mmHg 81%
04:00 +19°C° 1.5 mm 2 mps 646 mmHg 87%
05:00 +18°C° 1.5 mm 2 mps 646 mmHg 93%
06:00 +19°C° 0.9 mm 2 mps 647 mmHg 90%
07:00 +20°C° 0.9 mm 2 mps 647 mmHg 86%
08:00 +20°C° 0.9 mm 2 mps 648 mmHg 83%
09:00 +23°C° 0.6 mm 2 mps 648 mmHg 74%
10:00 +25°C° 0.6 mm 1 mps 648 mmHg 65%
11:00 +27°C° 0.6 mm 1 mps 649 mmHg 56%
12:00 +27°C° 0.2 mm 1 mps 648 mmHg 55%
13:00 +28°C° 0.2 mm 2 mps 648 mmHg 53%
14:00 +28°C° 0.2 mm 2 mps 647 mmHg 52%
15:00 +27°C° 0 mm 2 mps 647 mmHg 57%
16:00 +27°C° 0 mm 1 mps 647 mmHg 62%
17:00 +26°C° 0 mm 1 mps 646 mmHg 67%
18:00 +24°C° 0.2 mm 1 mps 646 mmHg 71%
19:00 +23°C° 0.2 mm 1 mps 646 mmHg 75%
20:00 +22°C° 0.2 mm 1 mps 646 mmHg 79%
21:00 +20°C° 0.3 mm 2 mps 646 mmHg 79%
22:00 +20°C° 0.3 mm 2 mps 646 mmHg 80%
23:00 +19°C° 0.3 mm 2 mps 646 mmHg 80%

3 October, Sunday

Time Temperature Precipitation Wind Pressure Humidity
00:00 +19°C° 0.3 mm 2 mps 646 mmHg 79%
01:00 +19°C° 0.3 mm 2 mps 646 mmHg 79%
02:00 +19°C° 0.3 mm 2 mps 645 mmHg 78%
03:00 +19°C° 0.2 mm 2 mps 645 mmHg 78%
04:00 +19°C° 0.2 mm 2 mps 645 mmHg 78%
05:00 +19°C° 0.2 mm 2 mps 645 mmHg 78%
06:00 +20°C° 0 mm 2 mps 646 mmHg 74%
07:00 +22°C° 0 mm 1 mps 647 mmHg 70%
08:00 +23°C° 0 mm 1 mps 647 mmHg 67%
09:00 +25°C° 0 mm 1 mps 647 mmHg 63%
10:00 +26°C° 0 mm 2 mps 648 mmHg 59%
11:00 +27°C° 0 mm 2 mps 648 mmHg 55%
12:00 +28°C° 0 mm 2 mps 648 mmHg 53%
13:00 +28°C° 0 mm 2 mps 647 mmHg 51%
14:00 +28°C° 0 mm 2 mps 647 mmHg 48%
15:00 +28°C° 0 mm 2 mps 647 mmHg 53%
16:00 +27°C° 0 mm 2 mps 646 mmHg 58%
17:00 +26°C° 0 mm 1 mps 646 mmHg 62%
18:00 +24°C° 0 mm 1 mps 646 mmHg 66%
19:00 +23°C° 0 mm 1 mps 646 mmHg 69%
20:00 +20°C° 0 mm 2 mps 645 mmHg 73%
21:00 +20°C° 0 mm 2 mps 646 mmHg 69%
22:00 +20°C° 0 mm 2 mps 646 mmHg 66%
23:00 +19°C° 0 mm 3 mps 646 mmHg 63%
Show more

We Need Your Consent

Meteoprog and our Service Providers may store and access personal data such as cookies, device identifiers or other similar technologies on your device and process such data to personalise content and ads, as well as provide social media features and to analyse the traffic.

  • Store and/or access information on your device

    Cookies, device identifiers or other information can be stored or accessed on your device for the purposes indicated above.

  • Personalised ads and content, ad and content measurement, audience insights, and products development

    Ads and content can be personalised based on a profile. More data can be added to better personalise ads and content. Ad and content performance can be measured. Insights about the audience who saw the ads and content can be derived. Such data can be used to develop or improve user’s experience, systems and software.

By clicking ‘I Agree’ you will allow the use of indicated cookies, device identifiers, web beacons or other similar technologies. Your settings can be changed in the browser on your device.

For certain purposes, legitimate interests may be relied on, rather than consent. You can read more about this in our Privacy and Cookie Policy.